contact:dominique.lefevre@mio.osupytheas.fr, maurice.libes@osupytheas.fr, didier.mallarino@osupytheas.fr
Project:EMSO http://www.emso-fr.org/EMSO-France
Depth: 2436.0 m
Title:EMSO Ligure Ouest : Data MII capteur MICROCAT
DateTime_Computer,Latitude,Longitude,Temperature,Conductivity,Pressure,DateTime_Instrument
DateTime_Computer,Latitude,Longitude,degC,S m-1,dbar,DateTime_Instrument
2021-10-08T00:01:54Z,42.805,6.029,13.3009,4.60058,2470.32,2021-10-08T02:03:17Z
2021-10-08T00:04:57Z,42.805,6.029,13.2999,4.60034,2470.273,2021-10-08T02:06:20Z
2021-10-08T00:08:00Z,42.805,6.029,13.3001,4.60037,2470.343,2021-10-08T02:09:23Z
2021-10-08T00:11:03Z,42.805,6.029,13.3002,4.60053,2470.31,2021-10-08T02:12:26Z
2021-10-08T00:14:06Z,42.805,6.029,13.3011,4.60059,2470.297,2021-10-08T02:15:29Z
2021-10-08T00:17:09Z,42.805,6.029,13.3008,4.60056,2470.31,2021-10-08T02:18:32Z
2021-10-08T00:20:26Z,42.805,6.029,13.3008,4.60065,2470.273,2021-10-08T02:21:35Z
2021-10-08T00:23:17Z,42.805,6.029,13.3010,4.60063,2470.273,2021-10-08T02:24:40Z
2021-10-08T00:26:20Z,42.805,6.029,13.3009,4.60058,2470.273,2021-10-08T02:27:43Z
2021-10-08T00:29:23Z,42.805,6.029,13.3000,4.60059,2470.31,2021-10-08T02:30:46Z
2021-10-08T00:32:26Z,42.805,6.029,13.3006,4.60047,2470.297,2021-10-08T02:33:49Z
2021-10-08T00:35:29Z,42.805,6.029,13.3001,4.60072,2470.297,2021-10-08T02:36:52Z
2021-10-08T00:38:32Z,42.805,6.029,13.3009,4.60064,2470.287,2021-10-08T02:39:55Z
2021-10-08T00:41:35Z,42.805,6.029,13.3008,4.60044,2470.297,2021-10-08T02:42:58Z
2021-10-08T00:44:39Z,42.805,6.029,13.3007,4.60050,2470.297,2021-10-08T02:46:01Z
2021-10-08T00:47:42Z,42.805,6.029,13.3001,4.60044,2470.25,2021-10-08T02:49:05Z
2021-10-08T00:50:45Z,42.805,6.029,13.2999,4.60036,2470.264,2021-10-08T02:52:08Z
2021-10-08T00:53:48Z,42.805,6.029,13.3003,4.60052,2470.25,2021-10-08T02:55:11Z
2021-10-08T00:56:51Z,42.805,6.029,13.3003,4.60052,2470.273,2021-10-08T02:58:14Z
2021-10-08T00:59:54Z,42.805,6.029,13.3009,4.60059,2470.273,2021-10-08T03:01:17Z
2021-10-08T01:02:57Z,42.805,6.029,13.3001,4.60056,2470.25,2021-10-08T03:04:20Z
2021-10-08T01:06:00Z,42.805,6.029,13.3006,4.60068,2470.273,2021-10-08T03:07:23Z
2021-10-08T01:09:03Z,42.805,6.029,13.3011,4.60067,2470.227,2021-10-08T03:10:26Z
2021-10-08T01:12:07Z,42.805,6.029,13.3000,4.60049,2470.287,2021-10-08T03:13:29Z
2021-10-08T01:15:10Z,42.805,6.029,13.3003,4.60051,2470.264,2021-10-08T03:16:33Z
2021-10-08T01:18:13Z,42.805,6.029,13.3015,4.60062,2470.25,2021-10-08T03:19:36Z
2021-10-08T01:21:16Z,42.805,6.029,13.3017,4.60052,2470.203,2021-10-08T03:22:39Z
2021-10-08T01:24:19Z,42.805,6.029,13.3017,4.60062,2470.25,2021-10-08T03:25:42Z
2021-10-08T01:27:22Z,42.805,6.029,13.3013,4.60054,2470.236,2021-10-08T03:28:45Z
2021-10-08T01:30:25Z,42.805,6.029,13.3001,4.60043,2470.227,2021-10-08T03:31:48Z
2021-10-08T01:33:28Z,42.805,6.029,13.3001,4.60050,2470.264,2021-10-08T03:34:51Z
2021-10-08T01:36:32Z,42.805,6.029,13.3009,4.60050,2470.227,2021-10-08T03:37:54Z
2021-10-08T01:39:35Z,42.805,6.029,13.3006,4.60055,2470.25,2021-10-08T03:40:57Z
2021-10-08T01:42:38Z,42.805,6.029,13.3006,4.60065,2470.25,2021-10-08T03:44:01Z
2021-10-08T01:45:41Z,42.805,6.029,13.2998,4.60050,2470.227,2021-10-08T03:47:04Z
2021-10-08T01:48:44Z,42.805,6.029,13.3003,4.60067,2470.227,2021-10-08T03:50:07Z
2021-10-08T01:51:47Z,42.805,6.029,13.3002,4.60063,2470.203,2021-10-08T03:53:10Z
2021-10-08T01:54:50Z,42.805,6.029,13.3004,4.60067,2470.24,2021-10-08T03:56:13Z
2021-10-08T01:57:53Z,42.805,6.029,13.3006,4.60073,2470.203,2021-10-08T03:59:16Z
2021-10-08T02:00:56Z,42.805,6.029,13.3007,4.60063,2470.227,2021-10-08T04:02:19Z
2021-10-08T02:04:00Z,42.805,6.029,13.3011,4.60079,2470.264,2021-10-08T04:05:22Z
2021-10-08T02:07:03Z,42.805,6.029,13.3007,4.60047,2470.227,2021-10-08T04:08:26Z
2021-10-08T02:10:06Z,42.805,6.029,13.3006,4.60062,2470.18,2021-10-08T04:11:29Z
2021-10-08T02:13:09Z,42.805,6.029,13.3009,4.60049,2470.24,2021-10-08T04:14:32Z
2021-10-08T02:16:12Z,42.805,6.029,13.2998,4.60043,2470.24,2021-10-08T04:17:35Z
2021-10-08T02:19:15Z,42.805,6.029,13.3007,4.60055,2470.25,2021-10-08T04:20:38Z
2021-10-08T02:22:18Z,42.805,6.029,13.3009,4.60052,2470.25,2021-10-08T04:23:41Z
2021-10-08T02:25:21Z,42.805,6.029,13.3011,4.60062,2470.227,2021-10-08T04:26:44Z
2021-10-08T02:28:24Z,42.805,6.029,13.3009,4.60052,2470.227,2021-10-08T04:29:47Z
2021-10-08T02:31:28Z,42.805,6.029,13.3009,4.60035,2470.25,2021-10-08T04:32:50Z
2021-10-08T02:34:31Z,42.805,6.029,13.3019,4.60067,2470.264,2021-10-08T04:35:54Z
2021-10-08T02:37:34Z,42.805,6.029,13.3016,4.60066,2470.24,2021-10-08T04:38:57Z
2021-10-08T02:40:37Z,42.805,6.029,13.3003,4.60059,2470.227,2021-10-08T04:42:00Z
2021-10-08T02:43:40Z,42.805,6.029,13.3006,4.60068,2470.203,2021-10-08T04:45:03Z
2021-10-08T02:46:43Z,42.805,6.029,13.3006,4.60068,2470.227,2021-10-08T04:48:06Z
2021-10-08T02:49:46Z,42.805,6.029,13.3024,4.60064,2470.217,2021-10-08T04:51:09Z
2021-10-08T02:52:49Z,42.805,6.029,13.3018,4.60049,2470.264,2021-10-08T04:54:12Z
2021-10-08T02:55:53Z,42.805,6.029,13.3032,4.60058,2470.24,2021-10-08T04:57:15Z
2021-10-08T02:58:56Z,42.805,6.029,13.3030,4.60067,2470.227,2021-10-08T05:00:19Z
2021-10-08T03:01:59Z,42.805,6.029,13.3021,4.60064,2470.24,2021-10-08T05:03:22Z
2021-10-08T03:05:02Z,42.805,6.029,13.3026,4.60044,2470.227,2021-10-08T05:06:25Z
2021-10-08T03:08:05Z,42.805,6.029,13.3021,4.60043,2470.227,2021-10-08T05:09:28Z
2021-10-08T03:11:08Z,42.805,6.029,13.3013,4.60079,2470.227,2021-10-08T05:12:31Z
2021-10-08T03:14:11Z,42.805,6.029,13.3010,4.60041,2470.25,2021-10-08T05:15:34Z
2021-10-08T03:17:14Z,42.805,6.029,13.3020,4.60055,2470.227,2021-10-08T05:18:37Z
2021-10-08T03:20:17Z,42.805,6.029,13.3015,4.60044,2470.25,2021-10-08T05:21:40Z
2021-10-08T03:23:21Z,42.805,6.029,13.3019,4.60030,2470.203,2021-10-08T05:24:43Z
2021-10-08T03:26:24Z,42.805,6.029,13.3019,4.60035,2470.264,2021-10-08T05:27:47Z
2021-10-08T03:29:27Z,42.805,6.029,13.3009,4.60041,2470.217,2021-10-08T05:30:50Z
2021-10-08T03:32:30Z,42.805,6.029,13.3006,4.60024,2470.227,2021-10-08T05:33:53Z
2021-10-08T03:35:33Z,42.805,6.029,13.3019,4.60026,2470.227,2021-10-08T05:36:56Z
2021-10-08T03:38:36Z,42.805,6.029,13.3019,4.60063,2470.24,2021-10-08T05:39:59Z
2021-10-08T03:41:39Z,42.805,6.029,13.3019,4.60031,2470.24,2021-10-08T05:43:02Z
2021-10-08T03:44:42Z,42.805,6.029,13.3019,4.60042,2470.24,2021-10-08T05:46:05Z
2021-10-08T03:47:46Z,42.805,6.029,13.3016,4.60028,2470.25,2021-10-08T05:49:08Z
2021-10-08T03:50:49Z,42.805,6.029,13.3007,4.60016,2470.264,2021-10-08T05:52:12Z
2021-10-08T03:53:52Z,42.805,6.029,13.3001,4.60021,2470.25,2021-10-08T05:55:15Z
2021-10-08T03:56:55Z,42.805,6.029,13.3013,4.60025,2470.25,2021-10-08T05:58:18Z
2021-10-08T03:59:58Z,42.805,6.029,13.3012,4.60033,2470.25,2021-10-08T06:01:21Z
2021-10-08T04:03:01Z,42.805,6.029,13.3018,4.60023,2470.273,2021-10-08T06:04:24Z
2021-10-08T04:06:04Z,42.805,6.029,13.3015,4.60048,2470.24,2021-10-08T06:07:27Z
2021-10-08T04:09:07Z,42.805,6.029,13.3009,4.60026,2470.264,2021-10-08T06:10:30Z
2021-10-08T04:12:10Z,42.805,6.029,13.3016,4.60031,2470.31,2021-10-08T06:13:33Z
2021-10-08T04:15:14Z,42.805,6.029,13.3000,4.60031,2470.31,2021-10-08T06:16:36Z
2021-10-08T04:18:17Z,42.805,6.029,13.3021,4.60046,2470.273,2021-10-08T06:19:40Z
2021-10-08T04:21:20Z,42.805,6.029,13.3019,4.60026,2470.273,2021-10-08T06:22:43Z
2021-10-08T04:24:23Z,42.805,6.029,13.3018,4.60062,2470.283,2021-10-08T06:25:46Z
2021-10-08T04:27:26Z,42.805,6.029,13.3019,4.60029,2470.264,2021-10-08T06:28:49Z
2021-10-08T04:30:29Z,42.805,6.029,13.3018,4.60032,2470.297,2021-10-08T06:31:52Z
2021-10-08T04:33:32Z,42.805,6.029,13.3016,4.60039,2470.31,2021-10-08T06:34:55Z
2021-10-08T04:36:35Z,42.805,6.029,13.3021,4.60036,2470.334,2021-10-08T06:37:58Z
2021-10-08T04:39:39Z,42.805,6.029,13.3021,4.60037,2470.287,2021-10-08T06:41:01Z
2021-10-08T04:42:42Z,42.805,6.029,13.3016,4.60081,2470.31,2021-10-08T06:44:05Z
2021-10-08T04:45:45Z,42.805,6.029,13.3033,4.60052,2470.31,2021-10-08T06:47:08Z
2021-10-08T04:48:48Z,42.805,6.029,13.3015,4.60033,2470.297,2021-10-08T06:50:11Z
2021-10-08T04:51:51Z,42.805,6.029,13.3009,4.60049,2470.32,2021-10-08T06:53:14Z
2021-10-08T04:54:54Z,42.805,6.029,13.3009,4.60031,2470.32,2021-10-08T06:56:17Z
2021-10-08T04:57:57Z,42.805,6.029,13.3019,4.60033,2470.32,2021-10-08T06:59:20Z
2021-10-08T05:01:00Z,42.805,6.029,13.3019,4.60073,2470.31,2021-10-08T07:02:23Z
2021-10-08T05:04:04Z,42.805,6.029,13.3021,4.60048,2470.343,2021-10-08T07:05:26Z
2021-10-08T05:07:07Z,42.805,6.029,13.3014,4.60076,2470.297,2021-10-08T07:08:30Z
2021-10-08T05:10:10Z,42.805,6.029,13.3011,4.60071,2470.343,2021-10-08T07:11:33Z
2021-10-08T05:13:13Z,42.805,6.029,13.3023,4.60069,2470.38,2021-10-08T07:14:36Z
2021-10-08T05:16:16Z,42.805,6.029,13.3011,4.60074,2470.357,2021-10-08T07:17:39Z
2021-10-08T05:19:19Z,42.805,6.029,13.3024,4.60092,2470.357,2021-10-08T07:20:42Z
2021-10-08T05:22:22Z,42.805,6.029,13.3033,4.60051,2470.357,2021-10-08T07:23:45Z
2021-10-08T05:25:25Z,42.805,6.029,13.3029,4.60034,2470.31,2021-10-08T07:26:48Z
2021-10-08T05:28:28Z,42.805,6.029,13.3021,4.60063,2470.366,2021-10-08T07:29:51Z
2021-10-08T05:31:32Z,42.805,6.029,13.3026,4.60072,2470.357,2021-10-08T07:32:54Z
2021-10-08T05:34:35Z,42.805,6.029,13.3015,4.60067,2470.366,2021-10-08T07:35:58Z
2021-10-08T05:37:38Z,42.805,6.029,13.3011,4.60051,2470.366,2021-10-08T07:39:01Z
2021-10-08T05:40:41Z,42.805,6.029,13.3011,4.60059,2470.366,2021-10-08T07:42:04Z
2021-10-08T05:43:44Z,42.805,6.029,13.3007,4.60070,2470.353,2021-10-08T07:45:07Z
2021-10-08T05:46:47Z,42.805,6.029,13.3009,4.60091,2470.404,2021-10-08T07:48:10Z
2021-10-08T05:49:50Z,42.805,6.029,13.3012,4.60079,2470.366,2021-10-08T07:51:13Z
2021-10-08T05:52:53Z,42.805,6.029,13.3014,4.60098,2470.366,2021-10-08T07:54:16Z
2021-10-08T05:55:57Z,42.805,6.029,13.3017,4.60085,2470.366,2021-10-08T07:57:19Z
2021-10-08T05:59:00Z,42.805,6.029,13.3023,4.60081,2470.39,2021-10-08T08:00:23Z
2021-10-08T06:02:03Z,42.805,6.029,13.3026,4.60076,2470.404,2021-10-08T08:03:26Z
2021-10-08T06:05:06Z,42.805,6.029,13.3017,4.60057,2470.404,2021-10-08T08:06:29Z
2021-10-08T06:08:09Z,42.805,6.029,13.3012,4.60056,2470.38,2021-10-08T08:09:32Z
2021-10-08T06:11:12Z,42.805,6.029,13.3031,4.60087,2470.38,2021-10-08T08:12:35Z
2021-10-08T06:14:15Z,42.805,6.029,13.3030,4.60079,2470.39,2021-10-08T08:15:38Z
2021-10-08T06:17:18Z,42.805,6.029,13.3038,4.60062,2470.38,2021-10-08T08:18:41Z
2021-10-08T06:20:22Z,42.805,6.029,13.3028,4.60077,2470.404,2021-10-08T08:21:44Z
2021-10-08T06:23:25Z,42.805,6.029,13.3026,4.60083,2470.39,2021-10-08T08:24:47Z
2021-10-08T06:26:28Z,42.805,6.029,13.3029,4.60074,2470.413,2021-10-08T08:27:51Z
2021-10-08T06:29:31Z,42.805,6.029,13.3012,4.60079,2470.427,2021-10-08T08:30:54Z
2021-10-08T06:32:34Z,42.805,6.029,13.3009,4.60067,2470.427,2021-10-08T08:33:57Z
2021-10-08T06:35:37Z,42.805,6.029,13.3016,4.60094,2470.413,2021-10-08T08:37:00Z
2021-10-08T06:38:40Z,42.805,6.029,13.3027,4.60055,2470.427,2021-10-08T08:40:03Z
2021-10-08T06:41:43Z,42.805,6.029,13.3025,4.60086,2470.413,2021-10-08T08:43:06Z
2021-10-08T06:44:46Z,42.805,6.029,13.3029,4.60095,2470.45,2021-10-08T08:46:09Z
2021-10-08T06:47:50Z,42.805,6.029,13.3026,4.60054,2470.413,2021-10-08T08:49:12Z
2021-10-08T06:50:53Z,42.805,6.029,13.3020,4.60057,2470.427,2021-10-08T08:52:15Z
2021-10-08T06:53:56Z,42.805,6.029,13.3024,4.60089,2470.46,2021-10-08T08:55:19Z
2021-10-08T06:56:59Z,42.805,6.029,13.3026,4.60077,2470.474,2021-10-08T08:58:22Z
2021-10-08T07:00:02Z,42.805,6.029,13.3029,4.60066,2470.474,2021-10-08T09:01:25Z
2021-10-08T07:03:05Z,42.805,6.029,13.3034,4.60056,2470.437,2021-10-08T09:04:28Z
2021-10-08T07:06:08Z,42.805,6.029,13.3019,4.60045,2470.497,2021-10-08T09:07:31Z
2021-10-08T07:09:11Z,42.805,6.029,13.3027,4.60105,2470.46,2021-10-08T09:10:34Z
2021-10-08T07:12:14Z,42.805,6.029,13.3029,4.60074,2470.427,2021-10-08T09:13:37Z
2021-10-08T07:15:18Z,42.805,6.029,13.3036,4.60041,2470.497,2021-10-08T09:16:40Z
2021-10-08T07:18:21Z,42.805,6.029,13.3036,4.60049,2470.474,2021-10-08T09:19:44Z
2021-10-08T07:21:24Z,42.805,6.029,13.3033,4.60041,2470.474,2021-10-08T09:22:47Z
2021-10-08T07:24:27Z,42.805,6.029,13.3025,4.60050,2470.46,2021-10-08T09:25:50Z
2021-10-08T07:27:30Z,42.805,6.029,13.3007,4.60025,2470.474,2021-10-08T09:28:53Z
2021-10-08T07:30:33Z,42.805,6.029,13.3009,4.60033,2470.497,2021-10-08T09:31:56Z
2021-10-08T07:33:36Z,42.805,6.029,13.3019,4.60024,2470.474,2021-10-08T09:34:59Z
2021-10-08T07:36:39Z,42.805,6.029,13.3015,4.60038,2470.46,2021-10-08T09:38:02Z
2021-10-08T07:39:43Z,42.805,6.029,13.3024,4.60046,2470.437,2021-10-08T09:41:05Z
2021-10-08T07:42:46Z,42.805,6.029,13.3013,4.60049,2470.46,2021-10-08T09:44:09Z
2021-10-08T07:45:49Z,42.805,6.029,13.3021,4.60045,2470.483,2021-10-08T09:47:12Z
2021-10-08T07:48:52Z,42.805,6.029,13.3019,4.60042,2470.45,2021-10-08T09:50:15Z
2021-10-08T07:51:55Z,42.805,6.029,13.3025,4.60044,2470.483,2021-10-08T09:53:18Z
2021-10-08T07:54:58Z,42.805,6.029,13.3034,4.60026,2470.474,2021-10-08T09:56:21Z
2021-10-08T07:58:01Z,42.805,6.029,13.3015,4.60051,2470.483,2021-10-08T09:59:24Z
2021-10-08T08:01:04Z,42.805,6.029,13.3014,4.60042,2470.46,2021-10-08T10:02:27Z
2021-10-08T08:04:07Z,42.805,6.029,13.3016,4.60046,2470.483,2021-10-08T10:05:30Z
2021-10-08T08:07:11Z,42.805,6.029,13.3017,4.60044,2470.483,2021-10-08T10:08:33Z
2021-10-08T08:10:14Z,42.805,6.029,13.3029,4.60036,2470.46,2021-10-08T10:11:37Z
2021-10-08T08:13:17Z,42.805,6.029,13.3004,4.60020,2470.483,2021-10-08T10:14:40Z
2021-10-08T08:16:20Z,42.805,6.029,13.3007,4.60019,2470.507,2021-10-08T10:17:43Z
2021-10-08T08:19:23Z,42.805,6.029,13.3022,4.60043,2470.474,2021-10-08T10:20:46Z
2021-10-08T08:22:26Z,42.805,6.029,13.3006,4.60039,2470.497,2021-10-08T10:23:49Z
2021-10-08T08:25:29Z,42.805,6.029,13.3015,4.60046,2470.474,2021-10-08T10:26:52Z
2021-10-08T08:28:32Z,42.805,6.029,13.3003,4.60019,2470.483,2021-10-08T10:29:55Z
2021-10-08T08:31:36Z,42.805,6.029,13.3018,4.60037,2470.483,2021-10-08T10:32:58Z
2021-10-08T08:34:39Z,42.805,6.029,13.3006,4.60032,2470.483,2021-10-08T10:36:02Z
2021-10-08T08:37:42Z,42.805,6.029,13.3007,4.60026,2470.497,2021-10-08T10:39:05Z
2021-10-08T08:40:45Z,42.805,6.029,13.3012,4.60022,2470.474,2021-10-08T10:42:08Z
2021-10-08T08:43:48Z,42.805,6.029,13.3009,4.60024,2470.483,2021-10-08T10:45:11Z
2021-10-08T08:46:51Z,42.805,6.029,13.3003,4.60016,2470.46,2021-10-08T10:48:14Z
2021-10-08T08:49:54Z,42.805,6.029,13.3011,4.60029,2470.497,2021-10-08T10:51:17Z
2021-10-08T08:52:57Z,42.805,6.029,13.3015,4.60037,2470.474,2021-10-08T10:54:20Z
2021-10-08T08:56:01Z,42.805,6.029,13.3011,4.60023,2470.474,2021-10-08T10:57:23Z
2021-10-08T08:59:04Z,42.805,6.029,13.3011,4.60024,2470.483,2021-10-08T11:00:27Z
2021-10-08T09:02:07Z,42.805,6.029,13.3011,4.60034,2470.46,2021-10-08T11:03:30Z
2021-10-08T09:05:10Z,42.805,6.029,13.3011,4.60041,2470.474,2021-10-08T11:06:33Z
2021-10-08T09:08:13Z,42.805,6.029,13.3009,4.60029,2470.483,2021-10-08T11:09:36Z
2021-10-08T09:11:16Z,42.805,6.029,13.3018,4.60031,2470.46,2021-10-08T11:12:39Z
2021-10-08T09:14:19Z,42.805,6.029,13.3017,4.60026,2470.497,2021-10-08T11:15:42Z
2021-10-08T09:17:22Z,42.805,6.029,13.3019,4.60027,2470.46,2021-10-08T11:18:45Z
2021-10-08T09:20:26Z,42.805,6.029,13.3006,4.60044,2470.497,2021-10-08T11:21:48Z
2021-10-08T09:23:29Z,42.805,6.029,13.3009,4.60032,2470.437,2021-10-08T11:24:52Z
2021-10-08T09:26:32Z,42.805,6.029,13.3013,4.60021,2470.46,2021-10-08T11:27:55Z
2021-10-08T09:29:35Z,42.805,6.029,13.3004,4.60019,2470.483,2021-10-08T11:30:58Z
2021-10-08T09:32:38Z,42.805,6.029,13.3011,4.60026,2470.483,2021-10-08T11:34:01Z
2021-10-08T09:35:41Z,42.805,6.029,13.3011,4.60033,2470.483,2021-10-08T11:37:04Z
2021-10-08T09:38:44Z,42.805,6.029,13.3012,4.60036,2470.437,2021-10-08T11:40:07Z
2021-10-08T09:41:47Z,42.805,6.029,13.3012,4.60044,2470.483,2021-10-08T11:43:10Z
2021-10-08T09:44:51Z,42.805,6.029,13.3009,4.60050,2470.483,2021-10-08T11:46:13Z
2021-10-08T09:47:54Z,42.805,6.029,13.3019,4.60036,2470.45,2021-10-08T11:49:17Z
2021-10-08T09:50:57Z,42.805,6.029,13.3014,4.60042,2470.45,2021-10-08T11:52:20Z
2021-10-08T09:54:00Z,42.805,6.029,13.3016,4.60035,2470.474,2021-10-08T11:55:23Z
2021-10-08T09:57:03Z,42.805,6.029,13.3012,4.60050,2470.46,2021-10-08T11:58:26Z
2021-10-08T10:00:06Z,42.805,6.029,13.3012,4.60040,2470.45,2021-10-08T12:01:29Z
2021-10-08T10:03:09Z,42.805,6.029,13.3010,4.60057,2470.45,2021-10-08T12:04:32Z
2021-10-08T10:06:12Z,42.805,6.029,13.3012,4.60044,2470.46,2021-10-08T12:07:35Z
2021-10-08T10:09:15Z,42.805,6.029,13.3009,4.60064,2470.413,2021-10-08T12:10:38Z
2021-10-08T10:12:19Z,42.805,6.029,13.3011,4.60051,2470.46,2021-10-08T12:13:41Z
2021-10-08T10:15:22Z,42.805,6.029,13.3011,4.60060,2470.474,2021-10-08T12:16:45Z
2021-10-08T10:18:25Z,42.805,6.029,13.3010,4.60062,2470.39,2021-10-08T12:19:48Z
2021-10-08T10:21:28Z,42.805,6.029,13.3013,4.60048,2470.413,2021-10-08T12:22:51Z
2021-10-08T10:24:31Z,42.805,6.029,13.3009,4.60035,2470.427,2021-10-08T12:25:54Z
2021-10-08T10:27:34Z,42.805,6.029,13.3015,4.60049,2470.437,2021-10-08T12:28:57Z
2021-10-08T10:30:37Z,42.805,6.029,13.3006,4.60036,2470.45,2021-10-08T12:32:00Z
2021-10-08T10:33:40Z,42.805,6.029,13.3009,4.60042,2470.413,2021-10-08T12:35:03Z
2021-10-08T10:36:44Z,42.805,6.029,13.3005,4.60044,2470.413,2021-10-08T12:38:06Z
2021-10-08T10:39:47Z,42.805,6.029,13.3008,4.60055,2470.38,2021-10-08T12:41:10Z
2021-10-08T10:42:50Z,42.805,6.029,13.3009,4.60058,2470.404,2021-10-08T12:44:13Z
2021-10-08T10:45:53Z,42.805,6.029,13.3008,4.60061,2470.437,2021-10-08T12:47:16Z
2021-10-08T10:48:56Z,42.805,6.029,13.3015,4.60052,2470.39,2021-10-08T12:50:19Z
2021-10-08T10:51:59Z,42.805,6.029,13.3016,4.60059,2470.404,2021-10-08T12:53:22Z
2021-10-08T10:55:02Z,42.805,6.029,13.3014,4.60058,2470.437,2021-10-08T12:56:25Z
2021-10-08T10:58:05Z,42.805,6.029,13.3011,4.60053,2470.45,2021-10-08T12:59:28Z
2021-10-08T11:01:09Z,42.805,6.029,13.3004,4.60052,2470.39,2021-10-08T13:02:31Z
2021-10-08T11:04:12Z,42.805,6.029,13.3007,4.60052,2470.38,2021-10-08T13:05:35Z
2021-10-08T11:07:15Z,42.805,6.029,13.3008,4.60053,2470.427,2021-10-08T13:08:38Z
2021-10-08T11:10:18Z,42.805,6.029,13.3012,4.60029,2470.404,2021-10-08T13:11:41Z
2021-10-08T11:13:21Z,42.805,6.029,13.3012,4.60062,2470.357,2021-10-08T13:14:44Z
2021-10-08T11:16:24Z,42.805,6.029,13.3011,4.60059,2470.427,2021-10-08T13:17:47Z
2021-10-08T11:19:27Z,42.805,6.029,13.3014,4.60058,2470.39,2021-10-08T13:20:50Z
2021-10-08T11:22:30Z,42.805,6.029,13.3017,4.60060,2470.427,2021-10-08T13:23:53Z
2021-10-08T11:25:34Z,42.805,6.029,13.3011,4.60058,2470.404,2021-10-08T13:26:56Z
2021-10-08T11:28:37Z,42.805,6.029,13.3013,4.60052,2470.404,2021-10-08T13:30:00Z
2021-10-08T11:31:40Z,42.805,6.029,13.3019,4.60058,2470.357,2021-10-08T13:33:03Z
2021-10-08T11:34:43Z,42.805,6.029,13.3023,4.60069,2470.334,2021-10-08T13:36:06Z
2021-10-08T11:37:46Z,42.805,6.029,13.3017,4.60069,2470.343,2021-10-08T13:39:09Z
2021-10-08T11:40:49Z,42.805,6.029,13.3019,4.60064,2470.38,2021-10-08T13:42:12Z
2021-10-08T11:43:52Z,42.805,6.029,13.3019,4.60073,2470.38,2021-10-08T13:45:15Z
2021-10-08T11:46:55Z,42.805,6.029,13.3015,4.60047,2470.366,2021-10-08T13:48:18Z
2021-10-08T11:49:59Z,42.805,6.029,13.3018,4.60050,2470.38,2021-10-08T13:51:21Z
2021-10-08T11:53:02Z,42.805,6.029,13.3016,4.60052,2470.357,2021-10-08T13:54:25Z
2021-10-08T11:56:05Z,42.805,6.029,13.3013,4.60042,2470.343,2021-10-08T13:57:28Z
2021-10-08T11:59:08Z,42.805,6.029,13.3013,4.60042,2470.366,2021-10-08T14:00:31Z
2021-10-08T12:02:11Z,42.805,6.029,13.3010,4.60045,2470.366,2021-10-08T14:03:34Z
2021-10-08T12:05:14Z,42.805,6.029,13.3015,4.60042,2470.366,2021-10-08T14:06:37Z
2021-10-08T12:08:17Z,42.805,6.029,13.3016,4.60050,2470.343,2021-10-08T14:09:40Z
2021-10-08T12:11:20Z,42.805,6.029,13.3013,4.60057,2470.32,2021-10-08T14:12:43Z
2021-10-08T12:14:24Z,42.805,6.029,13.3011,4.60053,2470.32,2021-10-08T14:15:46Z
2021-10-08T12:17:27Z,42.805,6.029,13.3013,4.60057,2470.357,2021-10-08T14:18:50Z
2021-10-08T12:20:30Z,42.805,6.029,13.3011,4.60052,2470.31,2021-10-08T14:21:53Z
2021-10-08T12:23:33Z,42.805,6.029,13.3015,4.60054,2470.31,2021-10-08T14:24:56Z
2021-10-08T12:26:36Z,42.805,6.029,13.3007,4.60050,2470.343,2021-10-08T14:27:59Z
2021-10-08T12:29:39Z,42.805,6.029,13.3015,4.60037,2470.31,2021-10-08T14:31:02Z
2021-10-08T12:32:42Z,42.805,6.029,13.3019,4.60044,2470.334,2021-10-08T14:34:05Z
2021-10-08T12:35:45Z,42.805,6.029,13.3009,4.60038,2470.371,2021-10-08T14:37:08Z
2021-10-08T12:38:49Z,42.805,6.029,13.3010,4.60036,2470.334,2021-10-08T14:40:11Z
2021-10-08T12:41:52Z,42.805,6.029,13.3005,4.60036,2470.357,2021-10-08T14:43:15Z
2021-10-08T12:44:55Z,42.805,6.029,13.3006,4.60039,2470.357,2021-10-08T14:46:18Z
2021-10-08T12:47:58Z,42.805,6.029,13.3004,4.60028,2470.31,2021-10-08T14:49:21Z
2021-10-08T12:51:01Z,42.805,6.029,13.3004,4.60044,2470.32,2021-10-08T14:52:24Z
2021-10-08T12:54:04Z,42.805,6.029,13.3009,4.60040,2470.32,2021-10-08T14:55:27Z
2021-10-08T12:57:07Z,42.805,6.029,13.3008,4.60043,2470.334,2021-10-08T14:58:30Z
2021-10-08T13:00:10Z,42.805,6.029,13.3004,4.60039,2470.297,2021-10-08T15:01:33Z
2021-10-08T13:03:13Z,42.805,6.029,13.3002,4.60035,2470.297,2021-10-08T15:04:36Z
2021-10-08T13:06:17Z,42.805,6.029,13.3004,4.60037,2470.273,2021-10-08T15:07:39Z
2021-10-08T13:09:20Z,42.805,6.029,13.3006,4.60033,2470.297,2021-10-08T15:10:43Z
2021-10-08T13:12:23Z,42.805,6.029,13.2999,4.60035,2470.297,2021-10-08T15:13:46Z
2021-10-08T13:15:26Z,42.805,6.029,13.3001,4.60036,2470.334,2021-10-08T15:16:49Z
2021-10-08T13:18:29Z,42.805,6.029,13.3004,4.60042,2470.31,2021-10-08T15:19:52Z
2021-10-08T13:21:32Z,42.805,6.029,13.3003,4.60045,2470.297,2021-10-08T15:22:55Z
2021-10-08T13:24:35Z,42.805,6.029,13.3000,4.60027,2470.273,2021-10-08T15:25:58Z
2021-10-08T13:27:38Z,42.805,6.029,13.3000,4.60035,2470.334,2021-10-08T15:29:01Z
2021-10-08T13:30:42Z,42.805,6.029,13.3013,4.60045,2470.334,2021-10-08T15:32:04Z
2021-10-08T13:33:45Z,42.805,6.029,13.3011,4.60024,2470.31,2021-10-08T15:35:08Z
2021-10-08T13:36:48Z,42.805,6.029,13.3004,4.60042,2470.31,2021-10-08T15:38:11Z
2021-10-08T13:39:51Z,42.805,6.029,13.3002,4.60035,2470.273,2021-10-08T15:41:14Z
2021-10-08T13:42:54Z,42.805,6.029,13.3006,4.60031,2470.32,2021-10-08T15:44:17Z
2021-10-08T13:45:57Z,42.805,6.029,13.3000,4.60033,2470.25,2021-10-08T15:47:20Z
2021-10-08T13:49:00Z,42.805,6.029,13.3011,4.60044,2470.264,2021-10-08T15:50:23Z
2021-10-08T13:52:03Z,42.805,6.029,13.3010,4.60044,2470.273,2021-10-08T15:53:26Z
2021-10-08T13:55:07Z,42.805,6.029,13.3004,4.60043,2470.287,2021-10-08T15:56:29Z
2021-10-08T13:58:10Z,42.805,6.029,13.2998,4.60030,2470.287,2021-10-08T15:59:33Z
2021-10-08T14:01:13Z,42.805,6.029,13.2998,4.60034,2470.273,2021-10-08T16:02:36Z
2021-10-08T14:04:16Z,42.805,6.029,13.3004,4.60039,2470.25,2021-10-08T16:05:39Z
2021-10-08T14:07:19Z,42.805,6.029,13.3000,4.60028,2470.273,2021-10-08T16:08:42Z
2021-10-08T14:10:22Z,42.805,6.029,13.3000,4.60031,2470.32,2021-10-08T16:11:45Z
2021-10-08T14:13:25Z,42.805,6.029,13.3001,4.60039,2470.31,2021-10-08T16:14:48Z
2021-10-08T14:16:28Z,42.805,6.029,13.3000,4.60033,2470.273,2021-10-08T16:17:51Z
2021-10-08T14:19:32Z,42.805,6.029,13.3007,4.60052,2470.273,2021-10-08T16:20:54Z
2021-10-08T14:22:35Z,42.805,6.029,13.3004,4.60042,2470.264,2021-10-08T16:23:58Z
2021-10-08T14:25:38Z,42.805,6.029,13.3006,4.60045,2470.287,2021-10-08T16:27:01Z
2021-10-08T14:28:41Z,42.805,6.029,13.3003,4.60044,2470.31,2021-10-08T16:30:04Z
2021-10-08T14:31:44Z,42.805,6.029,13.3021,4.60052,2470.273,2021-10-08T16:33:07Z
2021-10-08T14:34:47Z,42.805,6.029,13.3006,4.60036,2470.31,2021-10-08T16:36:10Z
2021-10-08T14:37:50Z,42.805,6.029,13.3006,4.60044,2470.31,2021-10-08T16:39:13Z
2021-10-08T14:40:53Z,42.805,6.029,13.3009,4.60050,2470.297,2021-10-08T16:42:16Z
2021-10-08T14:43:57Z,42.805,6.029,13.3003,4.60046,2470.26,2021-10-08T16:45:19Z
2021-10-08T14:47:00Z,42.805,6.029,13.3002,4.60034,2470.273,2021-10-08T16:48:23Z
2021-10-08T14:50:03Z,42.805,6.029,13.2997,4.60042,2470.287,2021-10-08T16:51:26Z
2021-10-08T14:53:06Z,42.805,6.029,13.3012,4.60055,2470.273,2021-10-08T16:54:29Z
2021-10-08T14:56:09Z,42.805,6.029,13.3001,4.60046,2470.297,2021-10-08T16:57:32Z
2021-10-08T14:59:12Z,42.805,6.029,13.3005,4.60036,2470.25,2021-10-08T17:00:35Z
2021-10-08T15:02:15Z,42.805,6.029,13.3007,4.60041,2470.273,2021-10-08T17:03:38Z